FW2249 Weather Reports


time (UTC)temp
C
wind
direction
speed
KPH
gust
KPH
rain 1hr
cm
rain 24hr
cm
rain mn
cm
humidity
%
barometer
mb
20260504160122 22 257 0.0 8.0 0.00 0.00 0.00 51 1009.2
20260504151122 22 293 0.0 0.0 0.00 0.00 0.00 56 1009.2
20260504150122 22 315 0.0 0.0 0.00 0.00 0.00 57 1009.0
20260504141143 17 113 0.0 0.0 0.00 0.00 0.00 74 1009.0
20260504140123 16 135 0.0 0.0 0.00 0.00 0.00 76 1008.9
20260504130122 11 113 0.0 0.0 0.00 0.00 0.00 91 1008.4
20260504120122 11 180 0.0 0.0 0.00 0.00 0.00 89 1008.5
20260504110123 12 113 0.0 0.0 0.00 0.00 0.00 87 1008.5
20260504100122 12 113 0.0 0.0 0.00 0.00 0.00 85 1008.2
20260504090122 13 68 0.0 0.0 0.00 0.00 0.00 82 1008.1
20260504081122 14 270 0.0 0.0 0.00 0.00 0.00 79 1007.9
20260504080143 14 113 0.0 0.0 0.00 0.00 0.00 77 1007.8
20260504070122 16 45 0.0 0.0 0.00 0.00 0.00 69 1007.8
20260504060122 18 68 0.0 0.0 0.00 0.00 0.00 61 1007.6
20260504050122 17 158 0.0 0.0 0.00 0.00 0.00 66 1007.7
20260504045123 17 293 0.0 0.0 0.00 0.00 0.00 67 1007.7
20260504044122 17 113 0.0 0.0 0.00 0.00 0.00 67 1007.7
20260504043143 17 113 0.0 0.0 0.00 0.00 0.00 67 1007.5
20260504042122 17 90 0.0 0.0 0.00 0.00 0.00 66 1007.6
20260504041143 17 270 0.0 0.0 0.00 0.00 0.00 64 1007.6
20260504040122 18 68 0.0 0.0 0.00 0.00 0.00 64 1007.7
20260504035122 18 45 0.0 0.0 0.00 0.00 0.00 63 1007.7
20260504034143 19 338 0.0 0.0 0.00 0.00 0.00 61 1007.6
20260504033122 19 293 0.0 0.0 0.00 0.00 0.00 60 1007.7
20260504032122 20 315 0.0 0.0 0.00 0.00 0.00 58 1007.7
20260504031122 20 270 0.0 0.0 0.00 0.00 0.00 57 1007.6
20260504030122 21 270 0.0 0.0 0.00 0.00 0.00 55 1007.7
20260504025122 21 270 0.0 0.0 0.00 0.00 0.00 54 1007.7
20260504024122 22 23 0.0 0.0 0.00 0.00 0.00 54 1007.8
20260504023143 22 270 0.0 0.0 0.00 0.00 0.00 52 1007.7
20260504022122 23 270 0.0 0.0 0.00 0.00 0.00 49 1007.9
20260504021123 25 315 0.0 0.0 0.00 0.00 0.00 47 1008.0
20260504020122 26 293 0.0 0.0 0.00 0.00 0.00 45 1008.0
20260504015122 25 315 0.0 0.0 0.00 0.00 0.00 47 1008.0
20260504014122 25 302 0.0 4.8 0.00 0.00 0.00 47 1008.2
20260504013122 26 270 0.0 0.0 0.00 0.00 0.00 46 1008.4
20260504012122 25 323 0.0 6.4 0.00 0.00 0.00 47 1008.5
20260504011122 26 306 0.0 8.0 0.00 0.00 0.00 46 1008.7
20260504010143 26 337 0.0 3.2 0.00 0.00 0.00 43 1008.7
20260504005122 26 224 1.6 17.7 0.00 0.00 0.00 39 1008.7
20260504004123 27 193 0.0 6.4 0.00 0.00 0.00 39 1008.9
20260504003123 26 206 1.6 20.9 0.00 0.00 0.00 39 1009.0
20260504002122 28 23 0.0 4.8 0.00 0.00 0.00 41 1009.2
20260504001122 27 292 0.0 8.0 0.00 0.00 0.00 41 1009.2
20260504000122 26 244 4.8 22.5 0.00 0.00 0.00 42 1009.6
20260503235122 27 266 3.2 16.1 0.00 0.00 0.00 42 1009.6
20260503234122 27 279 1.6 16.1 0.00 0.00 0.00 43 1009.7
20260503233143 26 318 1.6 14.5 0.00 0.00 0.00 46 1009.8
20260503232122 25 270 0.0 11.3 0.00 0.00 0.00 49 1010.0
20260503231122 25 286 1.6 14.5 0.00 0.00 0.00 49 1010.0
20260503230122 26 301 0.0 6.4 0.00 0.00 0.00 46 1010.2
20260503225122 27 298 0.0 11.3 0.00 0.00 0.00 44 1010.2
20260503224122 25 326 3.2 14.5 0.00 0.00 0.00 47 1010.4
20260503223122 24 305 3.2 19.3 0.00 0.00 0.00 48 1010.6
20260503222122 25 315 1.6 14.5 0.00 0.00 0.00 48 1010.7
20260503221123 25 260 3.2 20.9 0.00 0.00 0.00 48 1010.9
20260503220122 25 270 0.0 14.5 0.00 0.00 0.00 48 1011.1
20260503215122 25 272 3.2 16.1 0.00 0.00 0.00 48 1011.1
20260503214122 25 282 8.0 20.9 0.00 0.00 0.00 48 1011.2
20260503213124 26 302 3.2 14.5 0.00 0.00 0.00 47 1011.2
20260503212122 25 259 6.4 24.1 0.00 0.00 0.00 47 1011.5
20260503211122 25 292 4.8 20.9 0.00 0.00 0.00 48 1011.5
20260503210122 25 311 1.6 14.5 0.00 0.00 0.00 50 1011.7
20260503205122 25 297 6.4 20.9 0.00 0.00 0.00 49 1011.7
20260503204122 24 278 1.6 14.5 0.00 0.00 0.00 50 1011.8
20260503203144 24 301 4.8 16.1 0.00 0.00 0.00 49 1012.0
20260503202122 24 291 3.2 14.5 0.00 0.00 0.00 50 1012.1
20260503201122 26 275 4.8 12.9 0.00 0.00 0.00 47 1012.2
20260503200122 25 278 1.6 12.9 0.00 0.00 0.00 49 1012.5
20260503195122 23 280 0.0 12.9 0.00 0.00 0.00 52 1012.5
20260503194122 21 275 3.2 20.9 0.00 0.00 0.00 56 1012.6
20260503193122 22 270 3.2 20.9 0.00 0.00 0.00 57 1012.7
20260503192122 22 273 1.6 17.7 0.00 0.00 0.00 56 1012.8
20260503191122 23 270 0.0 0.0 0.00 0.00 0.00 55 1013.0
20260503190122 22 287 1.6 16.1 0.00 0.00 0.00 57 1013.0
20260503185122 22 270 0.0 0.0 0.00 0.00 0.00 57 1013.0
20260503184143 22 270 0.0 14.5 0.00 0.00 0.00 57 1013.1
20260503183122 22 306 0.0 8.0 0.00 0.00 0.00 58 1013.1
20260503182122 21 276 1.6 19.3 0.00 0.00 0.00 60 1013.1
20260503181143 22 276 4.8 16.1 0.00 0.00 0.00 58 1013.1
20260503180122 22 271 6.4 19.3 0.00 0.00 0.00 57 1013.2
20260503175122 22 276 4.8 19.3 0.00 0.00 0.00 54 1013.2
20260503174123 24 292 1.6 9.7 0.00 0.00 0.00 50 1013.2
20260503173123 22 290 1.6 12.9 0.00 0.00 0.00 54 1013.2
20260503172122 23 279 3.2 12.9 0.00 0.00 0.00 54 1013.4
20260503171122 22 289 0.0 9.7 0.00 0.00 0.00 56 1013.5
20260503170122 22 277 1.6 12.9 0.00 0.00 0.00 56 1013.6